Weather History for Asahikawa Airport, Japan

Change the Weather History Date:

Wednesday, January 30, 2013

  Actual Average Record
Temperature  
Mean Temperature 20 °F -  
Max Temperature 26 °F 24 °F 39 °F (2014)
Min Temperature 15 °F 10 °F 0 °F (2012)
Degree Days  
Heating Degree Days 44    
Moisture  
Dew Point 17 °F    
Average Humidity 86    
Maximum Humidity 93    
Minimum Humidity 74    
Precipitation  
Precipitation 0.00 in - - ()
Sea Level Pressure  
Sea Level Pressure 30.17 in    
Wind  
Wind Speed 3 mph ()    
Max Wind Speed 5 mph    
Max Gust Speed -    
Visibility 5.2 miles    
Events Snow    
Averages and records for this station are not official NWS values.
T = Trace of Precipitation, MM = Missing Value Source: Averaged Metar Reports

Daily Weather History Graph

Daily Weather History Graph

Search for Another Location

Airport:

Trip Planner

Search our weather history database for the weather conditions in past years. The results will help you decide how hot, cold, wet, or windy it might be!

Date:

Astronomy

Jan. 30, 2013 Rise Set
Actual Time 6:49 AM JST 4:38 PM JST
Civil Twilight 6:18 AM JST 5:08 PM JST
Nautical Twilight 5:44 AM JST 5:43 PM JST
Astronomical Twilight 5:10 AM JST 6:17 PM JST
Moon 8:04 PM JST (1/30) 7:49 AM JST (1/30)
Length of Visible Light 10h 50m
Length of Day
9h 48m
Waning Gibbous, 91% of the Moon is Illuminated
Jan 30
Waning Gibbous
Feb 3
Last Quarter
Feb 10
New
Feb 18
First Quarter
Feb 26
Full

Hourly Weather History & Observations

Time (JST) Temp. Windchill Dew Point Humidity Pressure Visibility Wind Dir Wind Speed Gust Speed Precip Events Conditions
6:49 AM 15.8 °F 8.6 °F 12.2 °F 86% 30.09 in - South 4.6 mph - N/A Snow Light Snow Showers
7:00 AM 15.8 °F 10.2 °F 14.0 °F 93% 30.09 in - South 3.5 mph - N/A Snow Light Snow Showers
7:24 AM 15.8 °F 8.6 °F 12.2 °F 86% 30.09 in 3.1 mi South 4.6 mph - N/A Snow Light Snow Showers
8:00 AM 15.8 °F - 14.0 °F 93% 30.12 in 6.2 mi Variable 1.2 mph - N/A Snow Light Snow Showers
8:43 AM 15.8 °F 10.2 °F 14.0 °F 93% 30.12 in - SSW 3.5 mph - N/A Snow Light Snow Showers
9:00 AM 15.8 °F 10.2 °F 14.0 °F 93% 30.12 in 2.5 mi South 3.5 mph - N/A Snow Light Snow Showers
9:22 AM 17.6 °F 12.3 °F 15.8 °F 93% 30.12 in 3.1 mi SSE 3.5 mph - N/A Snow Light Snow Showers
9:28 AM 19.4 °F 14.3 °F 15.8 °F 86% 30.12 in - SSE 3.5 mph - N/A Snow Light Snow Showers
9:42 AM 19.4 °F 14.3 °F 17.6 °F 93% 30.12 in 3.1 mi South 3.5 mph - N/A Snow Light Snow Showers
10:00 AM 19.4 °F 14.3 °F 17.6 °F 93% 30.15 in 5.0 mi SSE 3.5 mph - N/A Snow Light Snow Showers
10:16 AM 21.2 °F 14.9 °F 19.4 °F 93% 30.15 in - SSE 4.6 mph - N/A Snow Light Snow Showers
10:44 AM 23.0 °F 17.0 °F 19.4 °F 86% 30.15 in 3.1 mi ESE 4.6 mph - N/A Snow Light Snow Showers
11:00 AM 23.0 °F 18.4 °F 19.4 °F 86% 30.15 in 6.2 mi ESE 3.5 mph - N/A Snow Light Snow Showers
12:00 PM 24.8 °F - 23.0 °F 93% 30.15 in 6.2 mi Variable 1.2 mph - N/A Snow Light Snow Showers
1:00 PM 24.8 °F 19.1 °F 17.6 °F 74% 30.15 in 6.2 mi NE 4.6 mph - N/A Snow Light Snow Showers
2:00 PM 26.6 °F 21.2 °F 19.4 °F 74% 30.18 in 6.2 mi ENE 4.6 mph - N/A   Mostly Cloudy
3:00 PM 26.6 °F - 19.4 °F 74% 30.21 in 6.2 mi Variable 2.3 mph - N/A Snow Light Snow Showers
4:00 PM 23.0 °F 17.0 °F 17.6 °F 80% 30.24 in 6.2 mi North 4.6 mph - N/A   Mostly Cloudy
5:00 PM 23.0 °F - 17.6 °F 80% 30.27 in 6.2 mi Variable 1.2 mph - N/A   Mostly Cloudy
6:00 PM 23.0 °F - 17.6 °F 80% 30.27 in 6.2 mi South 1.2 mph - N/A Snow Light Snow Showers
7:00 PM 23.0 °F - 17.6 °F 80% 30.30 in 6.2 mi Calm Calm - N/A Snow Light Snow Showers
8:00 PM 23.0 °F - 19.4 °F 86% 30.33 in 6.2 mi Variable 2.3 mph - N/A   Mostly Cloudy